Preview of NWS' New Version of Forecast
This preview is not operational and should not be used for support decisions.

Regional Weather Roundup (RWR)

Issued by National Weather Service (NWS)

                            
000
ASUS46 KSEW 161710
RWRWA 

WASHINGTON REGIONAL WEATHER ROUNDUP
NATIONAL WEATHER SERVICE SEATTLE WA
1000 AM PDT MON SEP 16 2019

NOTE:"FAIR" INDICATES FEW OR NO CLOUDS BELOW 12,000 FEET WITH NO 
SIGNIFICANT WEATHER AND/OR OBSTRUCTIONS TO VISIBILITY.

WAZ507-509-555>559-161800-
SEATTLE, TACOMA, EVERETT, AND VICINITY
  
CITY           SKY/WX    TMP DP  RH WIND       PRES   REMARKS
EVERETT        PTSUNNY   57  53  86 S8        29.82F                  
BOEING FIELD   PTSUNNY   58  53  84 SE5       29.82F                  
RENTON         PTSUNNY   55  54  96 S3        29.82S                  
SEATAC AIRPORT MOSUNNY   58  54  86 S7        29.83R                  
JBLM-MCCHORD   NOT AVBL                                               
PUYALLUP       CLOUDY    57  55  94 CALM      29.83S                  
BREMERTON      CLOUDY    56  54  93 VRB6      29.83R                  
JBLM-FT LEWIS  MOSUNNY   58  58 100 CALM      29.82S                  
TACOMA NARROWS MOSUNNY   56  53  90 VRB3      29.83R                  
$$
 
WAZ001-503-506-510-514-515-161800-
NORTH INTERIOR
  
CITY           SKY/WX    TMP DP  RH WIND       PRES   REMARKS
BELLINGHAM     PTSUNNY   60  54  80 CALM      29.81S                  
FRIDAY HARBOR  CLOUDY    57  52  83 CALM      29.82S                  
EASTSOUND      CLOUDY    55  55 100 NW3       29.81R                  
PORT ANGELES   CLOUDY    55  52  89 VRB3      29.82S                  
EDIZ HOOK      CLOUDY    52  52  98 CALM      29.82S                  
PORT TOWNSEND  CLOUDY    55  52  88 CALM      29.81S                  
NAS WHIDBEY    CLOUDY    61  53  75 SE7       29.85F                  
ARLINGTON      CLOUDY    59  54  83 S7        29.83R                  
BURLINGTON     CLOUDY    61  57  88 CALM      29.82S                  
$$
 
WAZ020-022-039-040-504-511-512-161800-
SOUTHWEST INTERIOR
  
CITY           SKY/WX    TMP DP  RH WIND       PRES   REMARKS
SHELTON        CLOUDY    56  53  90 CALM      29.80S                  
OLYMPIA        PTSUNNY   58  53  84 SW6       29.83R                  
CHEHALIS       CLOUDY    59  55  88 S9        29.83S FOG              
KELSO          CLOUDY    60  55  83 S9        29.84S                  
VANCOUVER      PTSUNNY   61  53  75 SW3       29.83F                  
SCAPPOOSE, OR  CLOUDY    58  55  90 CALM      29.83S                  
PORTLAND, OR   PTSUNNY   61  54  77 SW6       29.84S                  
$$
 
WAZ021-516-517-161800-
WASHINGTON COAST
  
CITY           SKY/WX    TMP DP  RH WIND       PRES   REMARKS
FORKS          MOSUNNY   58  54  86 E5        29.80S                  
HOQUIAM        MOSUNNY   58  56  93 E7        29.83R                  
ASTORIA, OR    MOSUNNY   59  53  80 E5        29.81S                  
$$
 
WAZ019-023-024-040-567>569-161800-
CASCADE MOUNTAINS AND COLUMBIA GORGE
  
CITY           SKY/WX    TMP DP  RH WIND       PRES   REMARKS
STAMPEDE PASS  NOT AVBL                                               
TROUTDALE, OR  LGT RAIN  59  54  83 W7        29.84S                  
HOOD RIVER, OR MOSUNNY   59  52  77 W3        29.82F                  
THE DALLES, OR PTSUNNY   61  52  72 W14       29.80F                  
$$

WAZ026-027-041>044-520-521-161800-
EAST SLOPES
  
CITY           SKY/WX    TMP DP  RH WIND       PRES   REMARKS
OMAK           PTSUNNY   60  51  72 CALM      29.78S                  
WENATCHEE      PTSUNNY   55  48  77 W5        29.78R                  
ELLENSBURG     CLOUDY    58  46  64 NW10      29.78S                  
YAKIMA         CLOUDY    55  49  80 CALM      29.79S                  
SUNNYSIDE ARPT CLOUDY    57  53  87 SE3       29.81R                  
YAKIMA TC      FAIR      55  51  84 CALM      29.77S                  
$$

WAZ028-034-035-161800-
COLUMBIA BASIN
  
CITY           SKY/WX    TMP DP  RH WIND       PRES   REMARKS
EPHRATA        CLOUDY    57  50  77 N5        29.78R                  
MOSES LAKE     CLOUDY    59  51  75 S6        29.79R                  
PASCO          LGT RAIN  59  58  96 S9        29.82R                  
RICHLAND ARPT  LGT RAIN  59  56  89 CALM      29.81                   
HERMISTON, OR  LGT RAIN  58  54  86 SE7       29.81R                  
$$

WAZ036>038-161800-
NORTHEAST WASHINGTON
  
CITY           SKY/WX    TMP DP  RH WIND       PRES   REMARKS
SPOKANE GEIGER LGT RAIN  54  45  71 W6        29.80R                  
SPOKANE FELTS  CLOUDY    58  45  62 W6        29.81R                  
FAIRCHILD AFB  LGT RAIN  52  52 100 W5        29.80F                  
COEURDALENE,ID CLOUDY    59  45  59 NW3       29.80S                  
DEER PARK      CLOUDY    56  46  69 SW6       29.81R                  
$$

WAZ029>033-161800-
SOUTHEAST WASHINGTON
  
CITY           SKY/WX    TMP DP  RH WIND       PRES   REMARKS
PULLMAN        PTSUNNY   59  45  59 W6        29.83R                  
LEWISTON, ID   PTSUNNY   64  45  49 NW6       29.79S                  
WALLA WALLA    LGT RAIN  55  53  93 S8        29.83S                  
PENDLETON, OR  RAIN      53  51  93 E5        29.81F FOG              
$$